Regional Weather Roundup
Issued by NWS

Home | Current Version | Previous Version | Graphics & Text | Print | Product List | Glossary On
Versions: 1 2 3 4 5 6 7 8 9 10 11 12 13 14 15 16 17 18 19 20 21 22 23 24 25 26 27 28 29 30 31 32 33 34 35 36 37 38 39 40 41 42 43 44 45 46 47 48 49 50
000
ASUS43 KBIS 181510
RWRND

NORTH DAKOTA REGIONAL WEATHER ROUNDUP
NATIONAL WEATHER SERVICE BISMARCK ND
1000 AM CDT THU SEP 18 2014

NOTE: "FAIR" INDICATES FEW OR NO CLOUDS BELOW 12,000 FEET WITH NO
SIGNIFICANT WEATHER AND/OR OBSTRUCTIONS TO VISIBILITY.


NDZ001>003-009>011-017-181600-
NORTHWEST NORTH DAKOTA

CITY           SKY/WX    TMP DP  RH WIND       PRES   REMARKS
WILLISTON      SUNNY     62  50  64 S10       29.73F
MINOT          SUNNY     60  51  72 SE12      29.82F
MINOT AFB      MOSUNNY   58  55  91 S12       29.80F
$$

NDZ018>021-031>035-040>046-181600-
SOUTHWEST NORTH DAKOTA

CITY           SKY/WX    TMP DP  RH WIND       PRES   REMARKS
BISMARCK       SUNNY     61  54  77 SE12      29.87F
DICKINSON      SUNNY     61  51  70 S16       29.79F
GARRISON         N/A     60  52  74 S7        29.83F
HETTINGER ARPT SUNNY     59  51  75 S10       29.85F
$$

NDZ004>008-012>016-024-026-027-054-181600-
NORTHEAST NORTH DAKOTA

CITY           SKY/WX    TMP DP  RH WIND       PRES   REMARKS
GRAND FORKS    FOG       49  49 100 SE13      29.98F VSB 1/4
GRND FRKS AFB  FOG       48  48 100 S10       29.98S VSB 1/2
DEVILS LAKE    SUNNY     55  46  71 SE13      29.90F
$$

NDZ022-023-025-028>030-036>039-047>053-181600-
SOUTHEAST NORTH DAKOTA

CITY           SKY/WX    TMP DP  RH WIND       PRES   REMARKS
FARGO          CLOUDY    55  51  86 SE9       29.99F
JAMESTOWN      SUNNY     57  51  80 S8        29.93F
$$




USA.gov is the U.S. government's official web portal to all federal, state and local government web resources and services.